Location: Home
(51.5204°N, 2.5456°W)
Time: 12:24:18
(UTC+00:00)

STRAND 1 - Pass Details

Date: 16 December 2019
Orbit: 768 x 781 km, 98.5° (Epoch: 17 January)

Event Time Altitude Azimuth Distance (km) Brightness Sun altitude
Rises 07:12:56 0° 182° (S) 3,242 ? -8.3°
Reaches altitude 10° 07:15:21 10° 189° (S) 2,317 ? -8.0°
Maximum altitude 07:20:13 45° 262° (W) 1,055 ? -7.3°
Drops below altitude 10° 07:25:08 10° 334° (NNW) 2,326 ? -6.6°
Sets 07:27:33 0° 341° (NNW) 3,256 ? -6.3°
